Location: Cime de la Vallette
(44.0646°N, 7.3649°E)
Time: 10:52:34
(UTC+00:00)

Daily predictions for brighter satellites

Satellite Brightness Start Highest point End
(mag) Time Altitude Azimuth Time Altitude Azimuth Time Altitude Azimuth
CZ-4C R/B 3.7 16:26:37 10° W 16:30:15 22° NNW 16:34:37 10° NNE
ATLAS 2AS CENTAUR R/B 4.3 16:29:02 10° NNW 16:33:01 16° NNE 16:36:58 10° NE
YAOGAN 1 4.3 16:32:58 10° E 16:34:33 12° ENE 16:36:09 10° NE
UNK 3.8 16:31:43 10° NNE 16:36:19 63° ESE 16:40:52 10° S
SJ 16-02 3.1 16:34:45 10° ESE 16:36:36 13° E 16:38:26 10° ENE
DNEPR-1 R/B 4.3 16:33:22 10° NW 16:37:54 67° WSW 16:43:11 10° SSE
ATLAS CENTAUR R/B 3.7 16:43:04 10° NW 16:43:49 11° NW 16:44:34 10° NNW
SAR-Lupe-4 3.6 16:41:24 10° SSE 16:44:54 53° ENE 16:48:24 10° N
ARIANE 5 R/B 2.5 16:40:37 10° SSE 16:45:28 57° ENE 16:50:23 10° N
Cosmos 1441 Rocket 4.3 16:44:09 10° NNW 16:47:20 41° W 16:50:32 10° SSW
Cosmos 1833 Rocket 3.1 16:42:49 10° NNW 16:48:27 72° WSW 16:54:03 10° SSE
USA 215 3.3 16:46:35 10° ESE 16:53:06 79° NE 16:59:40 10° NW
IRS-P3 4.3 16:51:06 10° SE 16:56:14 52° ENE 17:01:24 10° N
Timation 1 Rocket 4.5 16:51:02 10° NNW 16:56:54 53° ENE 17:02:42 10° SE
Okean 2 Rocket 4.4 16:54:38 10° SE 16:57:41 19° E 17:00:34 11° NE
MOS 1 Rocket 3.6 16:54:27 10° SE 16:58:26 38° ENE 17:02:35 10° N
SAR-Lupe-3 3.8 16:56:42 10° NNE 16:59:20 57° ESE 17:01:54 10° S
Timation 2 Rocket 4.2 16:53:32 10° SSW 17:00:20 70° ESE 17:07:10 10° NNE
ATLAS 5 CENTAUR R/B 2.4 16:57:40 10° NW 17:02:10 63° SW 17:07:43 10° SSE
SJ-6F 4.3 17:03:05 10° SSE 17:06:54 55° ENE 17:10:45 10° N
Cosmos 2233 Rocket 4.5 17:00:58 10° SSW 17:07:12 65° W 17:13:31 10° N
Cosmos 407 Rocket 3.4 17:03:17 10° SSW 17:08:28 83° ESE 17:13:39 10° NNE
Cosmos 2061 Rocket 4.4 17:03:26 10° SSW 17:09:43 69° W 17:15:58 10° N
RESURS DK-1 2.2 17:06:56 10° NNW 17:10:55 62° ENE 17:14:51 10° SE
Cosmos 1602 3.8 17:08:17 10° N 17:11:05 32° ENE 17:13:52 10° SE
CZ-2D R/B 3.0 17:11:39 10° S 17:14:47 71° WSW 17:17:57 10° NNW
ISS -3.3 17:11:58 10° WSW 17:15:14 55° NNW 17:17:12 22° NE
Cosmos 1869 3.0 17:12:21 10° S 17:15:52 83° W 17:19:23 10° N
USA 281 4.5 17:15:07 17° ENE 17:17:03 19° NE 17:21:21 10° N
SPOT 1/Viking Rocket 3.8 17:12:30 10° SE 17:17:25 47° ENE 17:22:22 10° N
SJ-12 4.1 17:17:47 10° S 17:21:34 67° WSW 17:25:21 10° NNW
Cosmos 1464 Rocket 4.1 17:17:02 10° SSE 17:23:04 51° E 17:29:05 10° NNE
COSMO-SKYMED 1 3.0 17:21:26 18° NE 17:23:59 34° E 17:27:44 10° SSE
AQUARIUS 4.2 17:20:54 10° SSE 17:25:19 82° WSW 17:29:45 10° NNW
SL-12 R/B(2) 4.4 17:18:50 10° SW 17:26:42 83° NW 17:36:24 10° NE
BREEZE-M DEB (TANK) 2.6 17:27:16 10° W 17:29:45 54° NNW 17:32:21 24° ENE
Cosmos 1400 Rocket 3.1 17:26:15 10° SSE 17:29:49 40° E 17:31:12 28° NE
Cosmos 540 Rocket 3.4 17:25:50 10° NNW 17:31:00 85° WSW 17:36:05 10° SSE
Spot 4 Rocket 4.1 17:26:18 10° SE 17:31:13 52° ENE 17:36:10 10° N
Cosmos 1975 Rocket 4.5 17:30:01 10° NNW 17:34:05 40° W 17:38:10 10° SSW
Cosmos 1812 2.3 17:32:23 10° SSW 17:35:15 66° W 17:37:34 15° N
Cosmos 2034 Rocket 4.3 17:30:34 10° SSE 17:36:20 43° E 17:42:11 10° NNE
Cosmos 1763 Rocket 3.9 17:31:17 10° NNW 17:36:27 65° WSW 17:41:30 10° S
Cosmos 2151 Rocket 3.5 17:35:56 10° S 17:40:22 68° E 17:44:52 10° NNE
Cosmos 44 Rocket 3.6 17:38:56 10° SW 17:43:39 66° NW 17:47:06 19° NNE
Cosmos 2058 2.7 17:40:14 10° N 17:44:13 89° WSW 17:48:11 10° S
Cosmos 1943 Rocket 2.8 17:42:56 10° SW 17:48:27 56° WNW 17:53:57 10° NNE
Okean 1 Rocket 3.1 17:46:00 10° S 17:50:17 54° E 17:51:43 37° NE
CZ-2D R/B 3.4 17:46:13 10° SSE 17:50:21 89° W 17:54:34 10° NNW
SJ-7 4.0 17:46:43 10° SSE 17:50:23 72° ENE 17:54:04 10° N
SKYMED 2 3.6 17:46:17 10° N 17:50:39 82° WNW 17:54:58 10° SSW
IRAS Rocket 4.1 17:45:09 10° SSE 17:50:42 76° ENE 17:56:14 10° NNW
Sich 1 Rocket 3.6 17:46:53 10° S 17:51:19 57° E 17:53:29 29° NNE
PSLV R/B 3.2 17:47:56 10° SSE 17:51:56 67° ENE 17:55:57 10° N
Helios 1A Rocket 2.2 17:51:57 70° NE 17:52:13 77° ESE 17:55:35 10° S
Cosmos 1092 Rocket 4.4 17:47:10 10° N 17:52:58 38° ENE 17:54:59 30° ESE
Cosmos 2082 Rocket 2.1 17:49:34 10° NNW 17:55:14 88° ENE 18:00:51 10° SSE
Cosmos 1072 Rocket 4.5 17:50:06 10° S 17:56:16 83° W 18:02:25 10° N
Cosmos 2278 Rocket 3.0 17:51:46 10° SW 17:57:16 51° WNW 18:02:47 10° NNE
Meteor 2-1 Rocket 4.4 17:51:39 10° SSE 17:57:20 53° E 18:02:22 14° NNE
NOAA 6 4.0 17:53:34 10° SSE 17:58:37 60° ENE 18:03:40 10° N
Cosmos 2026 Rocket 4.1 17:53:41 10° N 17:59:34 48° ENE 18:05:28 10° SSE
Aureole 3 Rocket 4.1 17:57:22 10° SW 18:00:06 30° WNW 18:02:56 10° NNW
BREEZE-M DEB (TANK) 3.4 17:58:35 10° W 18:01:28 61° NNW 18:03:16 38° NE
BREEZE-M DEB (TANK) 4.0 17:59:56 10° W 18:02:38 40° N 18:04:09 32° NNE
Geosat 4.1 18:04:10 50° ENE 18:04:30 51° ENE 18:09:21 10° NNW
BREEZE-M DEB (TANK) 4.2 17:50:21 10° WNW 18:05:54 89° SSW 18:07:57 42° ESE
Cosmos 2369 Rocket 3.9 18:02:49 10° SSE 18:04:20 17° SSE 18:04:20 17° SSE
Cosmos 2251 Rocket 4.1 18:02:46 10° SW 18:07:56 56° WNW 18:12:38 13° NNE
YAOGAN 1 2.6 18:05:34 10° S 18:09:48 75° WSW 18:14:05 10° NNW
Cosmos 371 Rocket 3.1 18:06:40 10° SSW 18:11:28 90° ESE 18:12:52 47° NNE
Cosmos 304 Rocket 3.7 18:07:49 10° SSW 18:12:33 85° WNW 18:13:57 46° NNE
SL-19 R/B 4.1 18:08:45 10° SSE 18:13:58 77° WSW 18:19:12 10° NNW
SJ 16-02 1.7 18:09:53 10° SSW 18:14:08 61° WNW 18:15:42 36° N
Cosmos 841 Rocket 3.3 18:10:59 10° NNW 18:16:15 75° ENE 18:17:16 57° SE
Nadezhda 4 Rocket 4.3 18:15:22 10° NNW 18:21:36 67° W 18:27:43 10° S
Resurs 1-3 4.0 18:17:34 10° S 18:21:48 59° W 18:26:03 10° NNW
ATLAS 2AS CENTAUR R/B 3.3 18:19:50 10° NNW 18:25:35 36° NNE 18:25:35 36° NNE
COSMOS 2406 3.1 18:22:18 10° NNW 18:28:01 87° ENE 18:29:07 60° SSE
Cosmos 1656 Rocket 3.5 18:22:45 10° SSW 18:28:16 79° ESE 18:28:33 77° ENE
Cosmos 1627 Rocket 4.3 18:23:57 10° N 18:30:07 79° E 18:36:18 10° SSE
Okean 2 Rocket 4.3 18:31:11 10° SSW 18:35:19 40° WNW 18:37:52 20° NNW
Resurs 01 Rocket 4.2 18:46:22 12° NNW 18:46:22 12° NNW 18:46:41 10° NNW
Cosmos 2344 3.9 18:36:25 10° NW 18:44:30 74° NE 18:47:32 50° ESE
Meteor 2-3 Rocket 3.9 18:41:45 10° NNW 18:47:24 68° W 18:49:59 33° S
ISS -0.5 18:49:46 10° WNW 18:50:07 12° WNW 18:50:07 12° WNW
USA 281 3.5 19:02:00 57° N 19:02:00 57° N 19:07:10 10° NNW
Cosmos 1634 Rocket 4.4 19:02:41 10° SSW 19:07:38 54° SW 19:07:38 54° SW
